GFSCGP_prec_cthk_051.txt.gz
RH
98 91 75 70 66 62 63 64 69 76 82 91 85 82 79 75 72 75 75 70 68 68 66 63 60 59 61 62 60 58 56 54 54 51 47 44 41 41 39 38 37 36 36 36
99 94 79 74 62 60 59 64 65 65 72 79 86 84 74 72 70 73 73 76 70 68 66 63 61 59 56 53 51 50 50 48 45 42 39 38 37 37 37 37 37 36 35 33
99 92 86 80 69 61 58 55 59 58 64 74 79 80 69 66 71 70 69 74 72 69 67 64 63 60 57 55 54 50 44 42 40 40 39 39 39 39 38 36 35 35 35 35
95 92 93 90 80 66 62 52 51 54 64 67 62 66 57 60 64 63 62 71 74 72 69 66 63 62 61 59 58 55 51 47 44 40 39 38 37 34 32 29 28 28 28 27
97 92 89 90 85 71 60 55 54 55 60 61 60 66 51 50 54 54 62 69 76 75 71 69 66 63 60 58 55 51 50 48 46 45 41 38 35 32 30 28 26 24 23 23
97 93 92 87 89 74 58 54 59 62 62 73 63 67 48 47 43 48 57 57 66 74 75 69 66 61 59 57 53 49 47 45 43 41 40 38 36 34 32 27 24 22 21 21
98 95 87 84 87 76 64 63 77 78 76 72 60 65 45 44 42 41 44 52 59 61 63 68 65 61 59 57 56 53 50 47 44 39 36 34 31 30 28 26 24 23 22 21
97 97 88 79 82 76 68 60 64 72 72 64 58 60 44 38 38 40 44 46 46 52 58 53 57 58 57 53 51 49 48 46 45 41 38 35 32 29 28 27 26 25 23 22
96 97 92 84 79 74 69 65 54 59 60 59 51 46 36 33 32 34 36 39 38 38 41 52 50 46 51 55 55 52 48 46 44 42 39 37 36 32 29 28 27 25 24 25
88 92 92 87 78 72 67 61 63 61 61 56 45 42 34 33 33 32 32 33 34 35 35 37 46 53 48 48 50 48 47 46 45 43 42 41 39 37 33 31 29 28 28 29
82 82 92 89 85 76 69 72 69 64 58 55 50 38 37 36 35 36 34 31 31 35 35 35 40 48 51 51 46 46 44 44 45 44 44 43 42 40 39 35 34 34 35 34
82 88 90 89 80 78 71 65 64 70 66 64 62 52 38 38 36 34 37 37 34 33 34 39 43 46 52 48 45 46 45 44 45 45 44 43 42 42 42 41 40 39 39 38
76 83 91 92 86 83 83 83 78 74 71 72 68 53 40 40 41 40 40 43 42 39 42 42 44 45 45 49 48 46 47 48 46 46 44 44 44 44 44 44 43 43 42 42
63 79 78 79 73 78 84 80 78 76 80 73 56 52 46 47 45 45 47 47 50 46 46 49 48 47 46 48 50 52 52 51 51 48 44 42 43 44 46 49 48 48 45 42
67 75 77 74 72 75 74 74 77 77 71 72 50 51 47 56 54 55 56 57 56 53 52 51 49 50 51 54 57 58 57 57 56 48 44 43 44 46 48 49 49 46 43 43
81 87 79 79 75 77 78 79 83 81 79 77 72 65 72 63 66 65 64 65 62 59 58 58 58 57 57 57 62 64 61 59 56 53 50 50 50 50 51 51 50 49 48 46
93 92 89 85 80 75 73 67 67 72 75 76 79 65 61 59 58 63 65 66 64 62 62 63 59 57 60 61 63 64 63 58 56 57 59 57 57 56 53 51 50 50 50 48
73 74 74 75 68 69 50 49 50 53 53 58 59 56 56 55 54 54 60 62 64 67 64 59 59 60 63 64 65 70 65 58 58 61 60 59 59 58 60 58 53 51 51 49
70 70 76 76 76 58 53 56 55 55 57 59 61 61 60 57 54 45 48 49 60 63 60 60 63 64 67 67 67 72 68 65 65 64 63 61 59 61 62 60 56 52 50 49
82 79 76 84 84 74 59 57 56 56 65 66 67 65 64 65 61 47 46 46 45 57 58 59 65 67 68 66 65 70 70 68 65 65 63 60 58 56 55 54 53 53 51 48
88 90 90 87 83 72 61 63 65 68 68 68 69 67 64 66 61 54 51 48 44 48 54 60 65 69 65 63 66 75 73 70 68 67 67 65 60 56 56 57 55 50 44 31
81 85 86 84 83 80 67 69 75 75 69 67 67 69 66 65 60 57 53 48 45 46 53 62 67 68 66 71 78 80 77 73 69 67 67 66 65 62 59 58 52 43 30 29
67 67 74 78 78 72 74 73 73 69 67 66 64 68 70 68 63 58 58 50 51 52 57 66 67 66 70 78 86 81 78 74 70 68 66 66 64 61 57 53 49 32 31 31
64 65 66 64 62 64 63 66 65 62 57 57 63 63 67 70 73 66 63 64 59 57 59 65 68 67 69 81 88 85 82 80 76 72 69 65 64 61 59 54 41 36 35 35
67 62 59 55 54 50 49 49 50 43 46 58 59 59 60 67 72 78 70 70 75 72 76 86 92 93 92 92 92 93 90 85 82 79 76 72 66 61 57 51 45 43 43 41
62 65 72 70 72 76 67 61 56 51 48 45 53 59 59 63 65 74 84 76 71 75 82 94 96 96 97 98 97 96 92 91 91 87 81 75 71 67 62 57 53 50 49 47

GFSCGP_prec_cthk_054.txt.gz
RH
99 98 79 69 63 56 54 54 63 66 72 87 87 85 75 73 74 71 71 67 66 65 66 62 57 60 65 68 71 70 72 72 67 62 61 59 57 56 54 52 48 45 43 40
98 96 84 76 68 61 56 54 55 62 73 92 90 83 74 67 68 70 69 70 67 67 69 66 63 61 64 68 68 65 65 67 66 64 59 56 52 49 47 44 41 40 39 39
94 93 88 77 74 63 58 54 54 54 61 81 76 70 65 64 64 61 62 64 72 67 69 68 68 64 63 62 62 64 62 61 62 61 57 54 51 46 43 42 41 39 37 36
98 95 85 77 73 64 55 52 52 51 47 51 57 47 49 56 57 52 56 60 64 72 72 69 67 66 65 63 60 60 60 60 57 55 53 50 47 44 42 40 37 35 33 30
97 95 87 82 76 66 60 48 48 47 49 54 51 54 38 45 45 49 52 58 58 69 74 71 70 69 67 65 62 62 60 58 55 54 55 51 45 41 38 35 33 32 30 28
97 95 91 86 79 72 63 55 54 53 56 58 50 51 38 41 41 41 45 55 55 67 73 76 74 69 67 66 68 64 63 62 60 59 55 52 49 46 45 39 34 32 29 27
98 97 92 89 83 78 68 60 70 68 69 56 49 50 38 41 42 40 46 45 51 60 73 75 73 71 68 66 64 63 62 59 55 51 49 47 45 43 40 38 36 34 31 30
96 99 93 85 82 75 69 59 56 58 58 50 50 53 40 38 41 41 43 47 45 50 58 66 77 79 73 68 65 64 61 58 55 53 51 49 46 42 39 36 34 31 28 27
95 94 89 88 81 74 78 69 54 54 53 50 42 40 34 36 36 36 38 42 41 44 49 56 62 68 71 75 69 65 61 60 58 57 54 50 46 43 40 38 36 34 30 29
85 91 84 84 84 77 74 67 61 59 61 47 40 36 30 31 34 33 34 35 37 38 38 38 46 55 58 56 61 63 61 59 56 53 49 46 43 42 41 40 39 38 35 31
80 76 90 81 77 79 71 68 61 57 53 49 38 30 28 32 34 36 35 35 36 38 40 40 39 40 48 57 57 53 56 57 56 51 48 46 45 44 43 42 42 41 40 37
81 81 92 92 80 72 69 63 58 59 64 56 51 37 34 35 39 39 37 36 37 36 33 35 39 39 42 45 53 61 59 54 51 49 47 46 46 44 42 41 41 42 42 42
78 83 92 95 89 80 76 66 60 59 60 63 60 54 43 45 43 40 42 40 37 38 36 35 35 38 39 41 45 48 51 52 53 50 49 48 46 43 42 42 42 44 45 46
75 77 78 69 68 66 71 68 67 67 72 65 62 58 52 50 48 46 46 46 42 42 43 39 39 40 41 42 42 44 44 47 49 53 53 50 47 45 43 43 44 45 47 47
68 75 78 71 71 73 72 72 75 77 65 65 58 55 53 56 55 51 49 48 47 45 46 45 42 41 42 44 45 46 48 51 51 50 51 50 48 48 48 48 47 49 50 49
74 78 71 74 70 74 75 71 69 68 64 66 67 62 74 63 58 53 52 50 50 46 51 51 51 49 47 47 47 51 53 55 56 57 53 50 53 54 54 53 52 53 54 53
84 78 78 76 72 71 70 64 64 65 67 66 68 64 64 61 59 54 54 53 56 59 58 59 56 55 55 53 55 58 60 61 62 59 57 56 56 57 58 57 58 58 58 55
80 86 85 83 75 72 60 59 58 57 55 55 58 60 62 64 62 57 56 51 51 54 61 62 60 59 57 59 61 62 62 66 67 62 61 61 60 61 60 61 61 62 61 60
68 67 73 71 65 56 60 58 58 58 62 60 59 58 58 57 53 51 52 49 49 49 55 60 61 58 58 61 64 65 66 68 67 67 67 67 65 64 62 64 63 66 66 65
77 73 70 70 73 67 60 61 61 58 62 63 62 62 60 58 54 49 51 47 44 41 47 57 55 55 59 61 65 67 72 71 68 69 70 71 70 69 66 66 68 68 66 65
81 83 85 82 76 68 68 67 66 65 67 65 65 64 66 66 65 60 53 52 50 42 46 55 52 54 59 65 69 70 72 69 73 76 72 72 71 69 66 64 63 63 61 58
71 76 79 80 77 74 69 71 71 72 69 66 65 64 63 67 68 67 58 56 55 50 46 51 55 57 63 70 71 70 68 71 79 77 74 73 73 72 73 67 64 62 57 44
69 66 67 69 76 76 76 76 74 70 67 64 61 61 62 65 68 71 65 60 56 53 50 49 54 61 69 70 71 71 75 81 81 78 74 74 74 72 72 74 70 62 48 40
66 64 66 59 61 61 62 66 69 67 66 61 57 56 58 61 66 70 76 68 67 64 59 60 61 67 70 71 70 71 74 87 83 78 76 76 74 75 75 73 68 61 44 40
61 56 57 54 53 55 62 64 63 59 55 51 47 46 48 59 62 65 72 78 73 74 74 69 68 72 75 77 81 80 83 94 90 85 82 80 77 76 73 71 68 60 51 48
59 63 66 65 68 72 75 74 73 65 62 60 57 50 43 50 60 65 65 73 83 82 82 85 88 93 96 98 97 97 97 97 95 93 89 82 79 77 76 72 68 61 56 54

GFSCGP_prec_cthk_057.txt.gz
RH
98 97 83 66 61 58 51 42 63 68 75 80 74 79 77 78 68 64 69 71 70 68 65 63 66 57 57 62 63 59 59 64 66 69 69 60 56 58 60 60 59 57 55 54
97 98 80 72 67 66 55 45 60 75 81 82 79 86 81 77 73 64 63 65 65 68 67 64 62 67 62 63 66 65 64 65 64 68 70 71 71 66 67 65 60 55 52 49
93 95 92 76 69 62 61 49 56 68 70 73 79 84 75 71 71 67 64 65 69 69 70 69 67 63 66 64 68 70 72 70 70 69 69 69 68 65 60 58 53 50 46 45
91 96 93 81 71 65 62 57 65 61 62 64 61 63 57 60 64 60 61 62 65 67 73 74 68 66 63 64 64 67 69 65 63 62 62 62 64 65 63 58 52 50 46 41
91 97 92 81 71 68 66 55 58 57 57 47 55 59 46 49 51 56 60 57 61 64 70 78 70 67 67 67 65 66 64 64 64 65 67 67 65 64 59 53 52 48 42 38
93 97 93 78 75 73 68 59 58 54 53 57 47 46 36 40 41 39 49 52 53 61 60 70 76 71 66 68 67 68 67 66 66 67 66 66 62 57 54 53 53 49 41 39
98 96 95 85 82 75 68 66 70 67 69 58 45 44 40 39 37 38 43 44 44 51 56 59 63 71 69 69 68 66 67 67 68 65 66 62 60 57 56 55 51 49 45 42
98 98 93 85 77 72 68 62 58 57 53 50 50 48 38 32 32 34 38 40 40 42 48 57 65 68 72 72 71 69 68 70 72 71 68 65 61 56 53 51 48 45 42 39
89 96 92 87 81 76 73 73 64 60 53 52 48 36 31 30 31 31 32 33 37 40 46 49 61 74 75 76 77 76 74 70 69 67 66 63 59 57 54 51 50 47 44 40
81 93 92 87 82 77 75 72 69 64 64 45 42 35 32 30 33 34 36 36 36 38 38 44 53 57 66 69 74 80 79 76 73 71 67 63 60 59 57 53 48 46 44 42
84 76 91 92 84 79 76 75 70 66 57 59 41 37 31 31 34 34 36 38 36 36 41 43 43 41 44 50 61 66 72 71 77 76 71 66 62 59 54 48 44 43 42 42
82 81 85 86 84 79 73 68 66 65 65 48 49 45 34 33 33 34 38 38 37 34 34 36 38 39 40 42 43 52 59 64 66 60 60 62 58 54 50 48 46 44 43 42
79 80 92 90 77 71 73 68 65 60 62 63 58 49 43 40 37 36 38 39 40 37 35 34 36 36 35 36 39 40 45 51 56 59 61 59 56 52 51 50 46 43 44 44
78 76 75 76 72 66 69 65 66 63 68 59 55 51 53 51 46 43 41 42 43 40 38 38 38 38 39 39 38 39 40 42 43 44 46 48 52 53 52 49 47 46 47 46
76 80 79 72 72 72 71 64 64 70 64 67 60 61 56 54 52 52 49 48 47 43 41 41 43 42 40 40 40 41 40 40 40 41 43 45 49 49 48 46 48 49 49 49
70 76 70 77 71 71 71 68 68 71 72 70 67 62 59 57 56 52 49 48 46 45 45 48 48 47 45 45 43 43 44 45 47 48 50 50 48 47 48 49 49 53 54 55
75 73 75 73 65 64 63 59 62 66 66 65 65 62 60 61 61 60 58 57 53 50 49 50 55 53 52 53 52 51 48 49 52 55 57 57 53 52 54 56 55 57 58 61
80 81 77 77 68 71 58 55 55 58 59 59 58 60 61 61 61 59 61 61 58 55 52 50 57 60 60 60 60 57 57 59 61 61 64 63 59 59 60 60 60 62 60 64
67 71 78 82 71 61 62 60 62 65 73 66 65 62 58 57 56 57 67 62 58 54 52 50 52 62 63 63 62 60 60 62 64 65 67 65 64 64 64 64 63 64 63 66
67 66 64 63 65 61 63 59 60 59 64 64 59 58 57 57 57 55 55 59 56 53 51 48 47 55 62 62 64 63 63 65 67 68 68 67 69 67 67 67 67 68 67 68
78 78 80 80 75 65 63 63 67 72 71 69 63 58 57 58 59 57 59 59 59 54 54 50 44 49 56 60 61 60 62 66 69 70 69 67 69 71 70 70 69 70 68 68
72 74 74 74 81 76 68 70 70 70 66 64 62 61 60 58 55 54 56 61 62 56 56 54 49 52 55 58 59 61 67 70 71 68 67 66 69 73 72 71 73 71 70 67
62 55 59 58 62 62 64 67 68 67 66 61 56 56 57 52 48 47 52 62 68 64 61 57 54 55 56 58 62 67 70 72 72 69 70 74 73 79 76 73 75 85 74 64
61 59 60 54 56 56 54 54 53 52 58 60 59 54 51 49 45 44 47 60 67 71 68 68 61 58 59 62 65 71 71 71 72 74 75 84 81 74 79 82 77 75 76 64
66 60 59 56 54 54 54 59 63 63 62 61 57 54 54 52 50 45 44 57 64 72 77 74 76 71 68 67 70 72 73 75 72 72 78 89 77 79 86 83 81 81 76 63
60 60 62 62 69 70 69 70 70 71 70 69 67 63 62 60 56 51 40 52 66 68 74 80 82 83 85 83 87 88 91 92 95 94 97 95 88 84 79 82 82 79 75 65

GFSCGP_prec_cthk_060.txt.gz
RH
95 95 85 71 68 65 63 73 79 79 85 79 69 71 70 64 62 58 64 64 67 68 67 66 63 61 58 61 59 59 55 55 56 56 57 62 62 63 62 52 52 54 56 58
98 92 83 82 74 66 69 72 74 76 84 78 75 73 69 62 59 60 59 62 63 66 70 68 64 64 64 63 64 63 58 56 57 59 61 64 66 67 70 71 63 59 61 62
98 94 94 84 77 81 74 66 80 78 80 79 80 77 69 67 62 62 63 62 60 63 69 68 64 63 65 66 69 72 68 63 62 61 62 64 64 71 73 75 72 68 61 59
97 92 91 84 84 73 68 59 68 69 73 80 69 68 67 62 59 65 68 64 65 62 66 68 62 63 64 65 65 72 74 76 70 68 64 65 68 73 71 69 70 66 64 60
94 91 93 79 67 70 72 70 83 75 63 66 70 59 48 54 58 56 64 63 63 63 64 67 65 62 65 62 65 65 71 76 75 75 69 66 67 68 66 67 67 65 64 58
95 95 96 90 74 71 65 66 68 61 55 65 53 54 46 51 48 49 54 61 61 58 61 65 65 65 64 65 66 66 64 67 70 68 67 66 65 66 66 66 66 60 55 52
93 98 94 87 76 70 63 64 82 77 71 67 44 52 45 44 43 39 34 41 48 54 57 58 62 65 67 69 69 69 69 67 66 66 65 69 73 69 69 67 62 57 53 52
96 98 92 86 77 71 66 60 72 64 67 58 52 52 42 41 39 34 34 34 36 38 46 52 55 55 58 64 69 73 72 71 70 73 72 74 71 69 67 65 64 61 59 56
95 96 94 88 77 75 77 78 65 71 59 69 58 44 40 37 32 31 30 29 31 36 39 37 48 53 55 61 66 69 72 74 73 70 69 69 69 70 72 70 68 63 59 55
83 97 93 89 81 75 75 68 79 77 76 59 60 50 44 38 33 33 33 33 34 33 36 37 41 46 51 61 68 70 71 74 76 76 72 70 70 69 67 67 67 63 59 55
75 80 91 88 88 82 80 81 74 69 70 82 66 54 40 38 33 33 33 35 37 37 36 36 39 40 43 54 63 71 72 71 67 72 81 82 78 74 73 72 67 65 62 56
78 77 92 92 91 86 81 79 75 86 78 66 68 59 45 39 33 33 35 37 38 36 38 38 36 37 40 44 46 47 52 58 60 65 71 76 73 74 79 80 74 62 56 52
79 84 93 93 84 83 82 77 75 72 74 75 68 53 43 43 39 37 35 36 38 37 35 35 35 34 33 35 36 37 39 43 47 54 62 65 68 69 69 65 59 57 57 54
83 80 82 86 78 71 76 73 74 74 80 67 60 51 48 49 50 51 49 44 40 37 37 37 35 34 35 34 34 35 35 35 37 41 43 46 50 54 56 56 59 58 57 53
81 84 81 77 80 81 77 72 68 73 69 71 59 54 58 60 58 55 50 48 46 44 41 41 40 39 38 39 37 39 41 41 42 43 44 45 44 45 46 46 46 46 50 51
78 80 75 85 76 75 76 72 70 69 70 70 67 66 64 57 55 53 52 50 48 47 44 43 42 43 43 44 43 42 44 46 46 46 47 48 49 51 53 50 47 47 49 50
76 78 80 75 64 62 66 59 63 66 68 68 73 66 61 59 58 57 52 54 54 52 50 47 45 43 45 51 52 49 50 51 51 52 52 53 55 57 56 52 52 53 53 54
77 78 80 82 69 75 57 54 54 58 62 62 62 63 64 61 54 53 57 58 59 56 53 53 51 49 49 56 56 58 60 60 60 58 58 61 60 61 61 59 60 59 58 58
71 75 81 86 79 65 64 58 59 62 69 65 64 61 60 59 57 58 58 57 57 56 56 54 53 51 50 52 57 63 64 66 65 64 63 65 65 66 64 64 64 63 62 62
64 63 67 65 68 63 64 61 60 59 71 64 64 63 61 58 61 57 53 52 51 54 56 54 52 51 49 50 55 65 66 67 65 66 67 69 68 67 67 66 68 67 67 68
67 69 73 76 76 67 65 65 66 72 71 70 71 70 68 62 57 52 50 49 49 50 57 56 52 52 50 46 49 61 66 66 68 67 69 69 70 68 68 65 69 71 70 70
73 74 75 74 81 80 71 74 75 75 73 73 71 68 63 57 53 52 48 46 44 48 59 63 61 56 56 53 56 58 63 67 67 68 70 71 69 66 66 68 69 73 73 74
71 67 72 67 70 64 62 58 64 65 69 71 66 62 60 58 56 54 54 51 43 47 62 70 69 64 59 59 58 61 64 68 72 72 72 71 71 69 69 74 73 79 78 84
64 59 60 56 61 59 61 61 60 61 59 60 61 62 64 64 58 57 55 53 45 47 63 69 74 71 70 63 62 67 69 72 73 73 73 73 72 71 75 82 90 84 77 82
67 63 60 62 62 62 63 64 67 68 67 68 69 68 66 63 61 60 57 55 53 47 63 68 73 78 80 80 76 71 70 71 72 77 78 75 74 73 81 84 80 82 87 82
61 62 65 71 73 75 75 74 73 73 72 72 70 70 72 70 69 68 66 64 61 53 54 66 74 77 82 85 88 88 87 84 81 79 85 91 92 88 89 79 86 91 88 89

GFSCGP_prec_cthk_063.txt.gz
RH
92 95 97 85 80 78 76 79 75 81 85 96 89 85 72 64 59 50 48 50 56 60 67 64 63 63 64 62 64 70 63 59 59 57 51 48 47 50 53 59 60 61 61 53
92 90 93 89 83 77 74 77 76 75 83 92 87 81 69 64 57 53 53 50 51 57 64 65 64 64 62 62 64 67 65 66 67 60 57 55 55 54 58 63 69 72 74 72
89 81 92 82 86 83 82 70 64 73 81 88 83 81 70 59 59 61 56 52 49 52 60 61 65 64 64 62 64 66 68 69 68 65 61 60 61 63 67 65 68 69 74 73
97 92 89 87 81 75 73 71 74 82 94 94 81 85 68 60 60 59 57 53 50 50 52 56 57 60 62 62 63 66 69 70 72 69 71 66 64 64 66 67 70 78 74 69
96 92 97 94 74 81 75 63 66 85 82 79 76 78 66 62 62 58 54 55 56 56 56 54 55 56 59 64 63 63 68 75 77 82 82 83 80 81 78 76 72 70 73 68
93 95 95 96 88 79 71 76 88 84 84 82 76 70 57 60 56 50 50 54 54 59 62 60 55 55 59 61 63 63 65 72 72 75 77 81 80 79 81 75 74 70 70 68
96 98 91 90 83 77 76 75 98 97 90 78 60 61 51 44 46 46 46 45 52 56 59 59 57 59 59 61 64 65 65 66 71 75 77 76 77 75 74 73 72 74 70 64
98 98 88 81 76 70 72 71 77 83 82 69 56 57 47 40 39 40 36 34 35 36 44 52 55 58 61 65 67 66 69 69 69 70 73 71 71 74 75 73 75 74 77 74
98 97 91 82 75 69 69 73 62 65 59 68 57 47 42 38 37 35 34 31 32 32 35 39 45 48 54 60 62 63 62 65 69 72 73 71 69 71 77 76 76 72 73 70
88 93 92 83 75 69 68 68 73 79 69 62 63 50 47 42 41 32 31 31 30 30 31 31 34 39 45 50 56 57 62 66 66 70 75 76 75 73 72 73 71 71 70 69
80 86 93 83 84 82 77 74 71 72 79 84 65 56 46 48 40 36 33 33 34 34 34 33 32 33 36 42 47 53 62 68 70 74 76 78 76 74 73 72 74 73 76 76
75 84 88 88 84 81 79 75 73 82 75 75 71 62 52 47 37 36 36 37 38 39 38 37 37 36 36 36 41 43 46 62 70 71 72 73 69 67 68 73 76 75 74 72
74 80 90 90 84 80 82 78 75 76 74 76 77 66 58 52 46 41 40 42 43 41 39 38 37 36 36 34 33 34 39 42 44 51 57 59 63 61 62 66 69 72 70 68
69 76 78 80 77 75 81 78 78 79 87 76 74 66 59 55 54 53 51 50 50 50 45 41 39 35 34 35 34 32 32 34 35 37 40 43 46 49 50 50 51 50 57 59
79 81 78 76 75 73 71 72 76 78 75 75 64 66 68 63 60 59 58 57 57 57 53 48 44 40 39 39 39 39 37 37 39 39 39 41 42 44 46 45 45 44 45 45
79 82 78 83 76 76 76 74 71 70 72 70 67 65 62 61 61 64 61 59 56 52 49 48 46 44 42 41 42 43 44 42 42 43 45 46 46 47 47 48 48 50 49 49
74 74 79 80 69 70 75 72 70 70 70 70 73 70 68 68 67 62 60 58 52 51 51 50 48 47 45 43 42 42 50 50 49 49 49 50 51 52 52 55 56 54 52 53
76 75 78 80 70 73 58 55 57 66 70 70 70 71 72 70 67 61 60 58 55 52 51 50 49 47 47 47 47 44 56 59 57 57 59 61 59 59 63 61 61 59 59 62
73 76 80 82 81 69 65 65 65 65 73 72 71 69 65 62 62 63 63 63 59 53 48 49 54 53 49 49 50 50 52 64 65 66 67 66 65 64 66 66 65 64 65 65
69 69 70 72 74 72 67 68 66 65 76 69 68 67 68 69 70 66 61 58 55 52 49 45 50 53 52 50 49 50 49 54 67 70 71 70 69 68 70 71 68 68 70 70
67 69 74 77 81 76 71 70 71 76 76 75 76 77 77 76 71 65 59 54 50 48 42 40 48 54 56 52 50 48 50 53 63 72 75 73 74 74 73 71 71 70 71 70
65 71 74 80 86 85 71 73 78 78 80 81 82 79 75 72 69 65 58 54 51 51 44 39 50 58 62 61 57 58 56 60 64 68 72 75 74 74 75 73 72 70 70 71
67 65 71 67 70 62 62 63 63 62 62 61 60 60 63 65 65 65 63 57 53 53 54 47 56 62 66 69 66 63 62 60 65 68 70 72 77 76 73 74 74 76 76 78
60 58 61 60 63 61 58 60 60 59 60 63 64 64 64 66 66 64 62 65 64 62 58 50 54 64 68 70 74 72 69 67 67 68 73 77 77 75 73 75 77 79 78 90
60 59 61 64 66 65 66 66 69 71 73 73 69 67 66 65 66 68 69 68 65 62 59 58 53 60 71 72 74 80 83 81 79 75 74 74 73 74 78 80 77 79 86 88
48 51 53 55 58 61 67 70 72 69 69 67 66 63 62 61 60 62 65 69 72 70 66 64 60 61 65 71 77 80 87 91 92 91 90 83 79 81 84 88 89 88 88 86